Weather History for KJRB - October, 2013

Change the Weather History Date:

Monday, October 21, 2013

  Actual Average (KNYC) Record (KNYC)
Temperature  
Mean Temperature 60 °F 55 °F  
Max Temperature 68 °F 62 °F 84 °F (1920)
Min Temperature 51 °F 48 °F 32 °F (1974)
Degree Days  
Heating Degree Days 6 10  
Month to date heating degree days 153  
Since 1 July heating degree days 198  
Cooling Degree Days 0 0  
Month to date cooling degree days 13  
Year to date cooling degree days 1100  
Growing Degree Days 10 (Base 50)    
Moisture  
Dew Point 43 °F    
Average Humidity 57    
Maximum Humidity 76    
Minimum Humidity 33    
Precipitation  
Precipitation 0.16 in 0.14 in 2.17 in (1995)
Month to date precipitation 3.01  
Year to date precipitation 40.53  
Snow  
Snow 0.00 in 0.00 in 0.00 in (2002)
Month to date snowfall 0.0  
Since 1 July snowfall 0.0  
Snow Depth -    
Sea Level Pressure  
Sea Level Pressure 30.09 in    
Wind  
Wind Speed 6 mph (WSW)    
Max Wind Speed 18 mph    
Max Gust Speed 45 mph    
Visibility 10 miles    
Events      
T = Trace of Precipitation, MM = Missing Value Source: NWS Daily Summary

Daily Weather History Graph

Daily Weather History Graph

Search for Another Location

Airport or City:

Trip Planner

Search our weather history database for the weather conditions in past years. The results will help you decide how hot, cold, wet, or windy it might be!

Date:

Astronomy

Oct. 21, 2013 Rise Set
Actual Time 7:14 AM EDT 6:06 PM EDT
Civil Twilight 6:46 AM EDT 6:34 PM EDT
Nautical Twilight 6:14 AM EDT 7:06 PM EDT
Astronomical Twilight 5:42 AM EDT 7:37 PM EDT
Moon 7:56 PM EDT (10/21) 9:47 AM EDT (10/21)
Length of Visible Light 11h 48m
Length of Day
10h 52m
Waning Gibbous, 93% of the Moon is Illuminated
Oct 21
Waning Gibbous
Oct 26
Last Quarter
Nov 3
New
Nov 10
First Quarter
Nov 17
Full

Hourly Weather History & Observations

Time (EDT) Temp. Dew Point Humidity Pressure Visibility Wind Dir Wind Speed Gust Speed Precip Events Conditions
12:15 AM 55.4 °F 41.0 °F 58% 30.08 in 10.0 mi West 4.6 mph - N/A   Clear
12:35 AM 57.2 °F 39.2 °F 51% 30.08 in 10.0 mi West 4.6 mph - N/A   Clear
12:55 AM 55.4 °F 39.2 °F 54% 30.08 in 10.0 mi West 4.6 mph - N/A   Clear
1:15 AM 55.4 °F 42.8 °F 63% 30.09 in 10.0 mi West 5.8 mph - N/A   Clear
1:35 AM 55.4 °F 41.0 °F 58% 30.09 in 10.0 mi West 5.8 mph - N/A   Clear
1:55 AM 55.4 °F 41.0 °F 58% 30.09 in 10.0 mi West 4.6 mph - N/A   Clear
2:15 AM 55.4 °F 41.0 °F 58% 30.10 in 10.0 mi West 5.8 mph - N/A   Clear
2:35 AM 55.4 °F 39.2 °F 54% 30.10 in 10.0 mi West 5.8 mph - N/A   Clear
2:55 AM 53.6 °F 39.2 °F 58% 30.10 in 10.0 mi West 4.6 mph - N/A   Clear
3:15 AM 53.6 °F 42.8 °F 67% 30.10 in 10.0 mi West 5.8 mph - N/A   Clear
3:35 AM 53.6 °F 41.0 °F 62% 30.11 in 10.0 mi WSW 5.8 mph - N/A   Clear
3:55 AM 53.6 °F 39.2 °F 58% 30.11 in 10.0 mi West 3.5 mph - N/A   Clear
4:15 AM 53.6 °F 39.2 °F 58% 30.11 in 10.0 mi WSW 5.8 mph - N/A   Clear
4:35 AM 53.6 °F 41.0 °F 62% 30.11 in 10.0 mi West 3.5 mph - N/A   Clear
4:55 AM 53.6 °F 39.2 °F 58% 30.12 in 10.0 mi West 4.6 mph - N/A   Clear
5:15 AM 53.6 °F 39.2 °F 58% 30.12 in 10.0 mi WSW 4.6 mph - N/A   Clear
5:35 AM 53.6 °F 39.2 °F 58% 30.13 in 10.0 mi WSW 4.6 mph - N/A   Clear
5:55 AM 51.8 °F 41.0 °F 67% 30.13 in 10.0 mi West 4.6 mph - N/A   Clear
6:15 AM 51.8 °F 41.0 °F 67% 30.13 in 10.0 mi West 3.5 mph - N/A   Clear
6:35 AM 51.8 °F 41.0 °F 67% 30.14 in 10.0 mi West 3.5 mph - N/A   Clear
6:55 AM 51.8 °F 42.8 °F 71% 30.14 in 10.0 mi West 4.6 mph - N/A   Clear
7:15 AM 51.8 °F 42.8 °F 71% 30.14 in 10.0 mi WSW 4.6 mph - N/A   Clear
7:35 AM 51.8 °F 44.6 °F 76% 30.14 in 10.0 mi WSW 5.8 mph - N/A   Clear
7:55 AM 53.6 °F 42.8 °F 67% 30.15 in 10.0 mi West 5.8 mph - N/A   Clear
8:15 AM 53.6 °F 42.8 °F 67% 30.16 in 10.0 mi West 5.8 mph - N/A   Clear
8:35 AM 53.6 °F 44.6 °F 72% 30.16 in 10.0 mi WSW 5.8 mph - N/A   Clear
8:55 AM 55.4 °F 44.6 °F 67% 30.17 in 10.0 mi West 4.6 mph - N/A   Clear
9:15 AM 55.4 °F 44.6 °F 67% 30.17 in 9.0 mi West 4.6 mph - N/A   Clear
9:35 AM 55.4 °F 44.6 °F 67% 30.16 in 10.0 mi West 5.8 mph - N/A   Clear
9:55 AM 57.2 °F 44.6 °F 63% 30.16 in 9.0 mi WSW 5.8 mph - 0.01 in   Clear
10:15 AM 57.2 °F 44.6 °F 63% 30.16 in 8.0 mi WSW 4.6 mph - N/A   Clear
10:35 AM 59.0 °F 44.6 °F 59% 30.15 in 10.0 mi SSW 4.6 mph - N/A   Clear
10:55 AM 59.0 °F 42.8 °F 55% 30.15 in 7.0 mi Calm Calm - N/A   Clear
11:15 AM 60.8 °F 42.8 °F 52% 30.15 in 10.0 mi West 4.6 mph - N/A   Clear
11:35 AM 62.6 °F 44.6 °F 52% 30.14 in 10.0 mi West 3.5 mph - N/A   Clear
11:55 AM 62.6 °F 42.8 °F 48% 30.14 in 10.0 mi West 5.8 mph - N/A   Clear
12:15 PM 64.4 °F 42.8 °F 45% 30.14 in 9.0 mi WSW 4.6 mph - N/A   Clear
12:35 PM 64.4 °F 39.2 °F 40% 30.12 in 10.0 mi Calm Calm - N/A   Clear
12:55 PM 66.2 °F 37.4 °F 35% 30.11 in 10.0 mi WSW 5.8 mph - N/A   Clear
1:15 PM 66.2 °F 37.4 °F 35% 30.10 in 10.0 mi SSW 5.8 mph - N/A   Clear
1:35 PM 66.2 °F 37.4 °F 35% 30.09 in 10.0 mi South 10.4 mph - 0.01 in   Clear
1:55 PM 66.2 °F 39.2 °F 37% 30.09 in 10.0 mi SW 8.1 mph - 0.01 in   Clear
2:15 PM 66.2 °F 39.2 °F 37% 30.08 in 10.0 mi SW 8.1 mph - N/A   Clear
2:35 PM 68.0 °F 37.4 °F 33% 30.07 in 10.0 mi SW 10.4 mph 28.8 mph 0.01 in   Clear
2:55 PM 66.2 °F 39.2 °F 37% 30.07 in 10.0 mi SSW 6.9 mph 20.7 mph 0.01 in   Clear
3:15 PM 68.0 °F 37.4 °F 33% 30.06 in 10.0 mi SW 9.2 mph - 0.01 in   Clear
3:35 PM 66.2 °F 39.2 °F 37% 30.05 in 10.0 mi SSW 5.8 mph 17.3 mph 0.01 in   Clear
3:55 PM 68.0 °F 39.2 °F 35% 30.04 in 10.0 mi West 11.5 mph 41.4 mph 0.06 in   Clear
4:15 PM 66.2 °F 44.6 °F 46% 30.05 in 10.0 mi South 9.2 mph - N/A   Clear
4:35 PM 66.2 °F 44.6 °F 46% 30.05 in 10.0 mi SSE 10.4 mph 17.3 mph N/A   Clear
4:55 PM 66.2 °F 44.6 °F 46% 30.04 in 10.0 mi South 9.2 mph - N/A   Clear
5:15 PM 64.4 °F 44.6 °F 49% 30.04 in 10.0 mi South 11.5 mph - N/A   Clear
5:35 PM 64.4 °F 42.8 °F 45% 30.04 in 10.0 mi South 9.2 mph 34.5 mph 0.05 in   Clear
5:55 PM 62.6 °F 42.8 °F 48% 30.05 in 10.0 mi South 10.4 mph 44.9 mph 0.06 in   Clear
6:15 PM 62.6 °F 42.8 °F 48% 30.04 in 10.0 mi SSW 6.9 mph 16.1 mph N/A   Clear
6:35 PM 62.6 °F 44.6 °F 52% 30.05 in 10.0 mi SSW 10.4 mph - N/A   Clear
6:55 PM 62.6 °F 44.6 °F 52% 30.05 in 10.0 mi SSW 9.2 mph - N/A   Clear
7:15 PM 62.6 °F 44.6 °F 52% 30.06 in 10.0 mi SSW 10.4 mph - N/A   Clear
7:35 PM 60.8 °F 44.6 °F 55% 30.06 in 10.0 mi SW 11.5 mph - N/A   Clear
7:55 PM 60.8 °F 46.4 °F 59% 30.06 in 10.0 mi WSW 18.4 mph 39.1 mph 0.01 in   Clear
8:15 PM 60.8 °F 48.2 °F 63% 30.06 in 10.0 mi SSW 11.5 mph 17.3 mph N/A   Clear
8:35 PM 60.8 °F 48.2 °F 63% 30.05 in 10.0 mi SW 11.5 mph 18.4 mph N/A   Clear
8:55 PM 60.8 °F 48.2 °F 63% 30.05 in 10.0 mi SW 10.4 mph - N/A   Clear
9:15 PM 60.8 °F 50.0 °F 68% 30.05 in 10.0 mi SW 12.7 mph 17.3 mph N/A   Clear
9:35 PM 60.8 °F 50.0 °F 68% 30.05 in 10.0 mi SW 9.2 mph - N/A   Clear
9:55 PM 60.8 °F 50.0 °F 68% 30.05 in 10.0 mi SW 10.4 mph - N/A   Clear
10:15 PM 60.8 °F 50.0 °F 68% 30.04 in 10.0 mi SW 9.2 mph - N/A   Clear
10:35 PM 59.0 °F 50.0 °F 72% 30.03 in 10.0 mi SW 11.5 mph - N/A   Clear
10:55 PM 59.0 °F 50.0 °F 72% 30.02 in 10.0 mi SW 9.2 mph - N/A   Clear
11:15 PM 59.0 °F 50.0 °F 72% 30.01 in 10.0 mi SW 9.2 mph - N/A   Clear
11:35 PM 59.0 °F 50.0 °F 72% 30.01 in 10.0 mi WSW 6.9 mph - N/A   Clear
11:55 PM 59.0 °F 50.0 °F 72% 30.01 in 10.0 mi SW 9.2 mph - N/A   Clear